Year,Month,Day,Hour,Minute,Value (Times are PST for temperature in C)
2019,04,08,00,00,7.50
2019,04,08,00,01,7.40
2019,04,08,00,02,7.40
2019,04,08,00,03,7.40
2019,04,08,00,04,7.40
2019,04,08,00,05,7.50
2019,04,08,00,06,7.50
2019,04,08,00,07,7.60
2019,04,08,00,08,7.60
2019,04,08,00,09,7.60
2019,04,08,00,10,7.60
2019,04,08,00,11,7.60
2019,04,08,00,12,7.60
2019,04,08,00,13,7.60
2019,04,08,00,14,7.60
2019,04,08,00,15,7.60
2019,04,08,00,16,7.60
2019,04,08,00,17,7.70
2019,04,08,00,18,7.70
2019,04,08,00,19,7.70
2019,04,08,00,20,7.70
2019,04,08,00,21,7.70
2019,04,08,00,22,7.70
2019,04,08,00,23,7.70
2019,04,08,00,24,7.70
2019,04,08,00,25,7.70
2019,04,08,00,26,7.70
2019,04,08,00,27,7.70
2019,04,08,00,28,7.70
2019,04,08,00,29,7.70
2019,04,08,00,30,7.70
2019,04,08,00,31,7.70
2019,04,08,00,32,7.70
2019,04,08,00,33,7.70
2019,04,08,00,34,7.70
2019,04,08,00,35,7.80
2019,04,08,00,36,7.80
2019,04,08,00,37,7.80
2019,04,08,00,38,7.80
2019,04,08,00,39,7.70
2019,04,08,00,40,7.70
2019,04,08,00,41,7.70
2019,04,08,00,42,7.70
2019,04,08,00,43,7.80
2019,04,08,00,44,7.80
2019,04,08,00,45,7.80
2019,04,08,00,46,7.80
2019,04,08,00,47,7.80
2019,04,08,00,48,7.90
2019,04,08,00,49,7.90
2019,04,08,00,50,7.90
2019,04,08,00,51,8.00
2019,04,08,00,52,8.00
2019,04,08,00,53,8.00
2019,04,08,00,54,8.10
2019,04,08,00,55,8.10
2019,04,08,00,56,8.10
2019,04,08,00,57,8.10
2019,04,08,00,58,8.20
2019,04,08,00,59,8.20
2019,04,08,01,00,8.20
2019,04,08,01,01,8.20
2019,04,08,01,02,8.20
2019,04,08,01,03,8.30
2019,04,08,01,04,8.30
2019,04,08,01,05,8.30
2019,04,08,01,06,8.30
2019,04,08,01,07,8.30
2019,04,08,01,08,8.30
2019,04,08,01,09,8.30
2019,04,08,01,10,8.30
2019,04,08,01,11,8.30
2019,04,08,01,12,8.30
2019,04,08,01,13,8.30
2019,04,08,01,14,8.40
2019,04,08,01,15,8.40
2019,04,08,01,16,8.40
2019,04,08,01,17,8.40
2019,04,08,01,18,8.40
2019,04,08,01,19,8.40
2019,04,08,01,20,8.40
2019,04,08,01,21,8.40
2019,04,08,01,22,8.40
2019,04,08,01,23,8.40
2019,04,08,01,24,8.40
2019,04,08,01,25,8.40
2019,04,08,01,26,8.40
2019,04,08,01,27,8.40
2019,04,08,01,28,8.40
2019,04,08,01,29,8.30
2019,04,08,01,30,8.30
2019,04,08,01,31,8.30
2019,04,08,01,32,8.30
2019,04,08,01,33,8.30
2019,04,08,01,34,8.30
2019,04,08,01,35,8.30
2019,04,08,01,36,8.30
2019,04,08,01,37,8.20
2019,04,08,01,38,8.20
2019,04,08,01,39,8.20
2019,04,08,01,40,8.20
2019,04,08,01,41,8.20
2019,04,08,01,42,8.20
2019,04,08,01,43,8.10
2019,04,08,01,44,8.10
2019,04,08,01,45,8.10
2019,04,08,01,46,8.10
2019,04,08,01,47,8.10
2019,04,08,01,48,8.10
2019,04,08,01,49,8.10
2019,04,08,01,50,8.10
2019,04,08,01,51,8.10
2019,04,08,01,52,8.10
2019,04,08,01,53,8.10
2019,04,08,01,54,8.10
2019,04,08,01,55,8.10
2019,04,08,01,56,8.10
2019,04,08,01,57,8.10
2019,04,08,01,58,8.10
2019,04,08,01,59,8.10
2019,04,08,02,00,8.10
2019,04,08,02,01,8.10
2019,04,08,02,02,8.00
2019,04,08,02,03,8.00
2019,04,08,02,04,8.00
2019,04,08,02,05,8.00
2019,04,08,02,06,8.00
2019,04,08,02,07,7.90
2019,04,08,02,08,7.90
2019,04,08,02,09,7.90
2019,04,08,02,10,7.90
2019,04,08,02,11,7.90
2019,04,08,02,12,7.90
2019,04,08,02,13,7.80
2019,04,08,02,14,7.80
2019,04,08,02,15,7.80
2019,04,08,02,16,7.80
2019,04,08,02,17,7.80
2019,04,08,02,18,7.80
2019,04,08,02,19,7.80
2019,04,08,02,20,7.80
2019,04,08,02,21,7.70
2019,04,08,02,22,7.70
2019,04,08,02,23,7.70
2019,04,08,02,24,7.70
2019,04,08,02,25,7.70
2019,04,08,02,26,7.70
2019,04,08,02,27,7.70
2019,04,08,02,28,7.70
2019,04,08,02,29,7.70
2019,04,08,02,30,7.70
2019,04,08,02,31,7.70
2019,04,08,02,32,7.60
2019,04,08,02,33,7.60
2019,04,08,02,34,7.60
2019,04,08,02,35,7.60
2019,04,08,02,36,7.60
2019,04,08,02,37,7.60
2019,04,08,02,38,7.60
2019,04,08,02,39,7.60
2019,04,08,02,40,7.60
2019,04,08,02,41,7.60
2019,04,08,02,42,7.60
2019,04,08,02,43,7.60
2019,04,08,02,44,7.60
2019,04,08,02,45,7.60
2019,04,08,02,46,7.60
2019,04,08,02,47,7.60
2019,04,08,02,48,7.60
2019,04,08,02,49,7.70
2019,04,08,02,50,7.70
2019,04,08,02,51,7.70
2019,04,08,02,52,7.70
2019,04,08,02,53,7.70
2019,04,08,02,54,7.70
2019,04,08,02,55,7.70
2019,04,08,02,56,7.70
2019,04,08,02,57,7.70
2019,04,08,02,58,7.70
2019,04,08,02,59,7.70
2019,04,08,03,00,7.70
2019,04,08,03,01,7.70
2019,04,08,03,02,7.70
2019,04,08,03,03,7.70
2019,04,08,03,04,7.70
2019,04,08,03,05,7.60
2019,04,08,03,06,7.60
2019,04,08,03,07,7.60
2019,04,08,03,08,7.60
2019,04,08,03,09,7.60
2019,04,08,03,10,7.60
2019,04,08,03,11,7.60
2019,04,08,03,12,7.60
2019,04,08,03,13,7.60
2019,04,08,03,14,7.60
2019,04,08,03,15,7.60
2019,04,08,03,16,7.60
2019,04,08,03,17,7.60
2019,04,08,03,18,7.60
2019,04,08,03,19,7.60
2019,04,08,03,20,7.60
2019,04,08,03,21,7.60
2019,04,08,03,22,7.60
2019,04,08,03,23,7.60
2019,04,08,03,24,7.60
2019,04,08,03,25,7.60
2019,04,08,03,26,7.60
2019,04,08,03,27,7.60
2019,04,08,03,28,7.60
2019,04,08,03,29,7.70
2019,04,08,03,30,7.70
2019,04,08,03,31,7.70
2019,04,08,03,32,7.70
2019,04,08,03,33,7.70
2019,04,08,03,34,7.70
2019,04,08,03,35,7.70
2019,04,08,03,36,7.70
2019,04,08,03,37,7.70
2019,04,08,03,38,7.70
2019,04,08,03,39,7.70
2019,04,08,03,40,7.70
2019,04,08,03,41,7.70
2019,04,08,03,42,7.70
2019,04,08,03,43,7.70
2019,04,08,03,44,7.70
2019,04,08,03,45,7.70
2019,04,08,03,46,7.70
2019,04,08,03,47,7.70
2019,04,08,03,48,7.70
2019,04,08,03,49,7.70
2019,04,08,03,50,7.70
2019,04,08,03,51,7.70
2019,04,08,03,52,7.70
2019,04,08,03,53,7.70
2019,04,08,03,54,7.80
2019,04,08,03,55,7.80
2019,04,08,03,56,7.80
2019,04,08,03,57,7.90
2019,04,08,03,58,7.90
2019,04,08,03,59,7.90
2019,04,08,04,00,7.90
2019,04,08,04,01,7.90
2019,04,08,04,02,8.00
2019,04,08,04,03,8.00
2019,04,08,04,04,8.00
2019,04,08,04,05,8.00
2019,04,08,04,06,8.10
2019,04,08,04,07,8.10
2019,04,08,04,08,8.10
2019,04,08,04,09,8.10
2019,04,08,04,10,8.10
2019,04,08,04,11,8.10
2019,04,08,04,12,8.10
2019,04,08,04,13,8.10
2019,04,08,04,14,8.10
2019,04,08,04,15,8.10
2019,04,08,04,16,8.10
2019,04,08,04,17,8.10
2019,04,08,04,18,8.10
2019,04,08,04,19,8.10
2019,04,08,04,20,8.10
2019,04,08,04,21,8.10
2019,04,08,04,22,8.10
2019,04,08,04,23,8.10
2019,04,08,04,24,8.10
2019,04,08,04,25,8.10
2019,04,08,04,26,8.10
2019,04,08,04,27,8.10
2019,04,08,04,28,8.10
2019,04,08,04,29,8.10
2019,04,08,04,30,8.10
2019,04,08,04,31,8.10
2019,04,08,04,32,8.00
2019,04,08,04,33,8.00
2019,04,08,04,34,8.00
2019,04,08,04,35,8.10
2019,04,08,04,36,8.10
2019,04,08,04,37,8.10
2019,04,08,04,38,8.10
2019,04,08,04,39,8.10
2019,04,08,04,40,8.10
2019,04,08,04,41,8.10
2019,04,08,04,42,8.10
2019,04,08,04,43,8.10
2019,04,08,04,44,8.10
2019,04,08,04,45,8.10
2019,04,08,04,46,8.10
2019,04,08,04,47,8.10
2019,04,08,04,48,8.10
2019,04,08,04,49,8.20
2019,04,08,04,50,8.20
2019,04,08,04,51,8.20
2019,04,08,04,52,8.20
2019,04,08,04,53,8.20
2019,04,08,04,54,8.20
2019,04,08,04,55,8.20
2019,04,08,04,56,8.20
2019,04,08,04,57,8.20
2019,04,08,04,58,8.20
2019,04,08,04,59,8.20
2019,04,08,05,00,8.20
2019,04,08,05,01,8.20
2019,04,08,05,02,8.20
2019,04,08,05,03,8.10
2019,04,08,05,04,8.10
2019,04,08,05,05,8.10
2019,04,08,05,06,8.10
2019,04,08,05,07,8.10
2019,04,08,05,08,8.10
2019,04,08,05,09,8.10
2019,04,08,05,10,8.10
2019,04,08,05,11,8.10
2019,04,08,05,12,8.10
2019,04,08,05,13,8.10
2019,04,08,05,14,8.10
2019,04,08,05,15,8.10
2019,04,08,05,16,8.10
2019,04,08,05,17,8.10
2019,04,08,05,18,8.10
2019,04,08,05,19,8.10
2019,04,08,05,20,8.10
2019,04,08,05,21,8.10
2019,04,08,05,22,8.10
2019,04,08,05,23,8.10
2019,04,08,05,24,8.10
2019,04,08,05,25,8.10
2019,04,08,05,26,8.10
2019,04,08,05,27,8.10
2019,04,08,05,28,8.10
2019,04,08,05,29,8.20
2019,04,08,05,30,8.20
2019,04,08,05,31,8.20
2019,04,08,05,32,8.20
2019,04,08,05,33,8.20
2019,04,08,05,34,8.20
2019,04,08,05,35,8.20
2019,04,08,05,36,8.20
2019,04,08,05,37,8.20
2019,04,08,05,38,8.20
2019,04,08,05,39,8.20
2019,04,08,05,40,8.20
2019,04,08,05,41,8.20
2019,04,08,05,42,8.20
2019,04,08,05,43,8.20
2019,04,08,05,44,8.10
2019,04,08,05,45,8.10
2019,04,08,05,46,8.20
2019,04,08,05,47,8.10
2019,04,08,05,48,8.10
2019,04,08,05,49,8.10
2019,04,08,05,50,8.10
2019,04,08,05,51,8.10
2019,04,08,05,52,8.10
2019,04,08,05,53,8.10
2019,04,08,05,54,8.10
2019,04,08,05,55,8.10
2019,04,08,05,56,8.10
2019,04,08,05,57,8.10
2019,04,08,05,58,8.10
2019,04,08,05,59,8.10
2019,04,08,06,00,8.10
2019,04,08,06,01,8.10
2019,04,08,06,02,8.10
2019,04,08,06,03,8.10
2019,04,08,06,04,8.10
2019,04,08,06,05,8.10
2019,04,08,06,06,8.10
2019,04,08,06,07,8.10
2019,04,08,06,08,8.10
2019,04,08,06,09,8.10
2019,04,08,06,10,8.10
2019,04,08,06,11,8.10
2019,04,08,06,12,8.10
2019,04,08,06,13,8.10
2019,04,08,06,14,8.10
2019,04,08,06,15,8.10
2019,04,08,06,16,8.10
2019,04,08,06,17,8.10
2019,04,08,06,18,8.10
2019,04,08,06,19,8.10
2019,04,08,06,20,8.10
2019,04,08,06,21,8.10
2019,04,08,06,22,8.10
2019,04,08,06,23,8.10
2019,04,08,06,24,8.10
2019,04,08,06,25,8.10
2019,04,08,06,26,8.10
2019,04,08,06,27,8.10
2019,04,08,06,28,8.20
2019,04,08,06,29,8.20
2019,04,08,06,30,8.20
2019,04,08,06,31,8.20
2019,04,08,06,32,8.20
2019,04,08,06,33,8.20
2019,04,08,06,34,8.20
2019,04,08,06,35,8.20
2019,04,08,06,36,8.20
2019,04,08,06,37,8.10
2019,04,08,06,38,8.10
2019,04,08,06,39,8.10
2019,04,08,06,40,8.10
2019,04,08,06,41,8.10
2019,04,08,06,42,8.10
2019,04,08,06,43,8.10
2019,04,08,06,44,8.10
2019,04,08,06,45,8.10
2019,04,08,06,46,8.10
2019,04,08,06,47,8.10
2019,04,08,06,48,8.10
2019,04,08,06,49,8.10
2019,04,08,06,50,8.10
2019,04,08,06,51,8.10
2019,04,08,06,52,8.10
2019,04,08,06,53,8.10
2019,04,08,06,54,8.10
2019,04,08,06,55,8.10
2019,04,08,06,56,8.10
2019,04,08,06,57,8.10
2019,04,08,06,58,8.10
2019,04,08,06,59,8.10
2019,04,08,07,00,8.10
2019,04,08,07,01,8.10
2019,04,08,07,02,8.10
2019,04,08,07,03,8.10
2019,04,08,07,04,8.10
2019,04,08,07,05,8.10
2019,04,08,07,06,8.10
2019,04,08,07,07,8.10
2019,04,08,07,08,8.10
2019,04,08,07,09,8.10
2019,04,08,07,10,8.10
2019,04,08,07,11,8.10
2019,04,08,07,12,8.10
2019,04,08,07,13,8.10
2019,04,08,07,14,8.10
2019,04,08,07,15,8.10
2019,04,08,07,16,8.10
2019,04,08,07,17,8.10
2019,04,08,07,18,8.10
2019,04,08,07,19,8.10
2019,04,08,07,20,8.10
2019,04,08,07,21,8.10
2019,04,08,07,22,8.10
2019,04,08,07,23,8.10
2019,04,08,07,24,8.20
2019,04,08,07,25,8.20
2019,04,08,07,26,8.20
2019,04,08,07,27,8.20
2019,04,08,07,28,8.20
2019,04,08,07,29,8.20
2019,04,08,07,30,8.20
2019,04,08,07,31,8.20
2019,04,08,07,32,8.20
2019,04,08,07,33,8.30
2019,04,08,07,34,8.30
2019,04,08,07,35,8.30
2019,04,08,07,36,8.30
2019,04,08,07,37,8.30
2019,04,08,07,38,8.30
2019,04,08,07,39,8.30
2019,04,08,07,40,8.30
2019,04,08,07,41,8.30
2019,04,08,07,42,8.40
2019,04,08,07,43,8.40
2019,04,08,07,44,8.40
2019,04,08,07,45,8.50
2019,04,08,07,46,8.50
2019,04,08,07,47,8.60
2019,04,08,07,48,8.60
2019,04,08,07,49,8.70
2019,04,08,07,50,8.80
2019,04,08,07,51,8.80
2019,04,08,07,52,8.80
2019,04,08,07,53,8.80
2019,04,08,07,54,8.90
2019,04,08,07,55,8.90
2019,04,08,07,56,8.90
2019,04,08,07,57,8.90
2019,04,08,07,58,8.90
2019,04,08,07,59,9.00
2019,04,08,08,00,9.00
2019,04,08,08,01,9.00
2019,04,08,08,02,9.00
2019,04,08,08,03,9.00
2019,04,08,08,04,9.10
2019,04,08,08,05,9.10
2019,04,08,08,06,9.10
2019,04,08,08,07,9.20
2019,04,08,08,08,9.20
2019,04,08,08,09,9.10
2019,04,08,08,10,9.10
2019,04,08,08,11,9.00
2019,04,08,08,12,9.00
2019,04,08,08,13,9.00
2019,04,08,08,14,9.00
2019,04,08,08,15,8.90
2019,04,08,08,16,8.90
2019,04,08,08,17,8.90
2019,04,08,08,18,8.90
2019,04,08,08,19,8.90
2019,04,08,08,20,8.90
2019,04,08,08,21,8.90
2019,04,08,08,22,8.90
2019,04,08,08,23,8.90
2019,04,08,08,24,9.00
2019,04,08,08,25,9.00
2019,04,08,08,26,9.10
2019,04,08,08,27,9.20
2019,04,08,08,28,9.20
2019,04,08,08,29,9.20
2019,04,08,08,30,9.20
2019,04,08,08,31,9.20
2019,04,08,08,32,9.20
2019,04,08,08,33,9.20
2019,04,08,08,34,9.20
2019,04,08,08,35,9.20
2019,04,08,08,36,9.30
2019,04,08,08,37,9.30
2019,04,08,08,38,9.40
2019,04,08,08,39,9.40
2019,04,08,08,40,9.30
2019,04,08,08,41,9.30
2019,04,08,08,42,9.30
2019,04,08,08,43,9.30
2019,04,08,08,44,9.30
2019,04,08,08,45,9.30
2019,04,08,08,46,9.30
2019,04,08,08,47,9.30
2019,04,08,08,48,9.30
2019,04,08,08,49,9.30
2019,04,08,08,50,9.30
2019,04,08,08,51,9.30
2019,04,08,08,52,9.30
2019,04,08,08,53,9.30
2019,04,08,08,54,9.30
2019,04,08,08,55,9.30
2019,04,08,08,56,9.40
2019,04,08,08,57,9.40
2019,04,08,08,58,9.40
2019,04,08,08,59,9.40
2019,04,08,09,00,9.40
2019,04,08,09,01,9.40
2019,04,08,09,02,9.50
2019,04,08,09,03,9.50
2019,04,08,09,04,9.50
2019,04,08,09,05,9.50
2019,04,08,09,06,9.50
2019,04,08,09,07,9.40
2019,04,08,09,08,9.40
2019,04,08,09,09,9.40
2019,04,08,09,10,9.40
2019,04,08,09,11,9.40
2019,04,08,09,12,9.40
2019,04,08,09,13,9.30
2019,04,08,09,14,9.30
2019,04,08,09,15,9.30
2019,04,08,09,16,9.30
2019,04,08,09,17,9.30
2019,04,08,09,18,9.30
2019,04,08,09,19,9.30
2019,04,08,09,20,9.30
2019,04,08,09,21,9.30
2019,04,08,09,22,9.20
2019,04,08,09,23,9.20
2019,04,08,09,24,9.30
2019,04,08,09,25,9.30
2019,04,08,09,26,9.30
2019,04,08,09,27,9.30
2019,04,08,09,28,9.30
2019,04,08,09,29,9.30
2019,04,08,09,30,9.30
2019,04,08,09,31,9.30
2019,04,08,09,32,9.20
2019,04,08,09,33,9.20
2019,04,08,09,34,9.20
2019,04,08,09,35,9.20
2019,04,08,09,36,9.20
2019,04,08,09,37,9.20
2019,04,08,09,38,9.20
2019,04,08,09,39,9.10
2019,04,08,09,40,9.10
2019,04,08,09,41,9.10
2019,04,08,09,42,9.10
2019,04,08,09,43,9.00
2019,04,08,09,44,9.00
2019,04,08,09,45,9.00
2019,04,08,09,46,9.00
2019,04,08,09,47,9.10
2019,04,08,09,48,9.10
2019,04,08,09,49,9.10
2019,04,08,09,50,9.10
2019,04,08,09,51,9.00
2019,04,08,09,52,9.00
2019,04,08,09,53,9.00
2019,04,08,09,54,9.00
2019,04,08,09,55,9.10
2019,04,08,09,56,9.10
2019,04,08,09,57,9.10
2019,04,08,09,58,9.10
2019,04,08,09,59,9.20
2019,04,08,10,00,9.20
2019,04,08,10,01,9.20
2019,04,08,10,02,9.20
2019,04,08,10,03,9.20
2019,04,08,10,04,9.30
2019,04,08,10,05,9.30
2019,04,08,10,06,9.30
2019,04,08,10,07,9.30
2019,04,08,10,08,9.40
2019,04,08,10,09,9.50
2019,04,08,10,10,9.60
2019,04,08,10,11,9.70
2019,04,08,10,12,9.70
2019,04,08,10,13,9.70
2019,04,08,10,14,9.80
2019,04,08,10,15,9.80
2019,04,08,10,16,9.80
2019,04,08,10,17,9.80
2019,04,08,10,18,9.90
2019,04,08,10,19,9.90
2019,04,08,10,20,9.90
2019,04,08,10,21,10.00
2019,04,08,10,22,10.00
2019,04,08,10,23,10.10
2019,04,08,10,24,10.10
2019,04,08,10,25,10.10
2019,04,08,10,26,10.10
2019,04,08,10,27,10.10
2019,04,08,10,28,10.10
2019,04,08,10,29,10.10
2019,04,08,10,30,10.00
2019,04,08,10,31,10.00
2019,04,08,10,32,9.90
2019,04,08,10,33,9.90
2019,04,08,10,34,9.90
2019,04,08,10,35,10.00
2019,04,08,10,36,10.00
2019,04,08,10,37,10.00
2019,04,08,10,38,10.10
2019,04,08,10,39,10.10
2019,04,08,10,40,10.10
2019,04,08,10,41,10.10
2019,04,08,10,42,10.10
2019,04,08,10,43,10.10
2019,04,08,10,44,10.00
2019,04,08,10,45,10.00
2019,04,08,10,46,10.00
2019,04,08,10,47,9.90
2019,04,08,10,48,9.90
2019,04,08,10,49,10.00
2019,04,08,10,50,10.00
2019,04,08,10,51,10.00
2019,04,08,10,52,10.10
2019,04,08,10,53,10.10
2019,04,08,10,54,10.10
2019,04,08,10,55,10.10
2019,04,08,10,56,10.10
2019,04,08,10,57,10.10
2019,04,08,10,58,10.10
2019,04,08,10,59,10.20
2019,04,08,11,00,10.20
2019,04,08,11,01,10.20
2019,04,08,11,02,10.20
2019,04,08,11,03,10.20
2019,04,08,11,04,10.30
2019,04,08,11,05,10.30
2019,04,08,11,06,10.30
2019,04,08,11,07,10.30
2019,04,08,11,08,10.20
2019,04,08,11,09,10.20
2019,04,08,11,10,10.20
2019,04,08,11,11,10.30
2019,04,08,11,12,10.30
2019,04,08,11,13,10.30
2019,04,08,11,14,10.30
2019,04,08,11,15,10.20
2019,04,08,11,16,10.20
2019,04,08,11,17,10.20
2019,04,08,11,18,10.20
2019,04,08,11,19,10.20
2019,04,08,11,20,10.20
2019,04,08,11,21,10.10
2019,04,08,11,22,10.10
2019,04,08,11,23,10.10
2019,04,08,11,24,10.00
2019,04,08,11,25,10.00
2019,04,08,11,26,9.90
2019,04,08,11,27,9.90
2019,04,08,11,28,9.80
2019,04,08,11,29,9.90
2019,04,08,11,30,9.90
2019,04,08,11,31,9.90
2019,04,08,11,32,9.90
2019,04,08,11,33,9.90
2019,04,08,11,34,10.00
2019,04,08,11,35,10.00
2019,04,08,11,36,10.00
2019,04,08,11,37,9.90
2019,04,08,11,38,9.90
2019,04,08,11,39,9.80
2019,04,08,11,40,9.80
2019,04,08,11,41,9.80
2019,04,08,11,42,9.80
2019,04,08,11,43,9.70
2019,04,08,11,44,9.70
2019,04,08,11,45,9.70
2019,04,08,11,46,9.60
2019,04,08,11,47,9.60
2019,04,08,11,48,9.60
2019,04,08,11,49,9.60
2019,04,08,11,50,9.70
2019,04,08,11,51,9.70
2019,04,08,11,52,9.70
2019,04,08,11,53,9.80
2019,04,08,11,54,9.70
2019,04,08,11,55,9.70
2019,04,08,11,56,9.70
2019,04,08,11,57,9.70
2019,04,08,11,58,9.60
2019,04,08,11,59,9.60
2019,04,08,12,00,9.60
2019,04,08,12,01,9.70
2019,04,08,12,02,9.70
2019,04,08,12,03,9.80
2019,04,08,12,04,9.70
2019,04,08,12,05,9.80
2019,04,08,12,06,9.80
2019,04,08,12,07,9.70
2019,04,08,12,08,9.70
2019,04,08,12,09,9.70
2019,04,08,12,10,9.80
2019,04,08,12,11,9.80
2019,04,08,12,12,9.80
2019,04,08,12,13,9.80
2019,04,08,12,14,9.80
2019,04,08,12,15,9.80
2019,04,08,12,16,9.80
2019,04,08,12,17,9.90
2019,04,08,12,18,9.90
2019,04,08,12,19,9.80
2019,04,08,12,20,9.90
2019,04,08,12,21,9.90
2019,04,08,12,22,9.90
2019,04,08,12,23,9.90
2019,04,08,12,24,9.90
2019,04,08,12,25,9.80
2019,04,08,12,26,9.80
2019,04,08,12,27,9.80
2019,04,08,12,28,9.80
2019,04,08,12,29,9.90
2019,04,08,12,30,9.90
2019,04,08,12,31,9.90
2019,04,08,12,32,9.90
2019,04,08,12,33,9.80
2019,04,08,12,34,9.80
2019,04,08,12,35,9.80
2019,04,08,12,36,9.80
2019,04,08,12,37,9.80
2019,04,08,12,38,9.80
2019,04,08,12,39,9.80
2019,04,08,12,40,9.70
2019,04,08,12,41,9.70
2019,04,08,12,42,9.70
2019,04,08,12,43,9.70
2019,04,08,12,44,9.70
2019,04,08,12,45,9.70
2019,04,08,12,46,9.80
2019,04,08,12,47,9.80
2019,04,08,12,48,9.80
2019,04,08,12,49,9.80
2019,04,08,12,50,9.80
2019,04,08,12,51,9.80
2019,04,08,12,52,9.80
2019,04,08,12,53,9.80
2019,04,08,12,54,9.80
2019,04,08,12,55,9.90
2019,04,08,12,56,10.00
2019,04,08,12,57,10.00
2019,04,08,12,58,10.00
2019,04,08,12,59,10.10
2019,04,08,13,00,10.10
2019,04,08,13,01,10.10
2019,04,08,13,02,10.10
2019,04,08,13,03,10.10
2019,04,08,13,04,10.10
2019,04,08,13,05,10.10
2019,04,08,13,06,10.10
2019,04,08,13,07,10.10
2019,04,08,13,08,10.10
2019,04,08,13,09,10.10
2019,04,08,13,10,10.10
2019,04,08,13,11,10.00
2019,04,08,13,12,10.00
2019,04,08,13,13,9.90
2019,04,08,13,14,10.00
2019,04,08,13,15,10.00
2019,04,08,13,16,10.10
2019,04,08,13,17,10.10
2019,04,08,13,18,10.10
2019,04,08,13,19,10.10
2019,04,08,13,20,10.10
2019,04,08,13,21,10.10
2019,04,08,13,22,10.10
2019,04,08,13,23,10.10
2019,04,08,13,24,10.10
2019,04,08,13,25,10.10
2019,04,08,13,26,10.00
2019,04,08,13,27,10.00
2019,04,08,13,28,10.00
2019,04,08,13,29,9.90
2019,04,08,13,30,9.90
2019,04,08,13,31,9.90
2019,04,08,13,32,9.90
2019,04,08,13,33,9.80
2019,04,08,13,34,9.80
2019,04,08,13,35,9.80
2019,04,08,13,36,9.80
2019,04,08,13,37,9.80
2019,04,08,13,38,9.70
2019,04,08,13,39,9.70
2019,04,08,13,40,9.70
2019,04,08,13,41,9.70
2019,04,08,13,42,9.70
2019,04,08,13,43,9.70
2019,04,08,13,44,9.70
2019,04,08,13,45,9.70
2019,04,08,13,46,9.70
2019,04,08,13,47,9.70
2019,04,08,13,48,9.70
2019,04,08,13,49,9.70
2019,04,08,13,50,9.70
2019,04,08,13,51,9.70
2019,04,08,13,52,9.70
2019,04,08,13,53,9.70
2019,04,08,13,54,9.70
2019,04,08,13,55,9.70
2019,04,08,13,56,9.70
2019,04,08,13,57,9.70
2019,04,08,13,58,9.80
2019,04,08,13,59,9.80
2019,04,08,14,00,9.80
2019,04,08,14,01,9.80
2019,04,08,14,02,9.90
2019,04,08,14,03,9.90
2019,04,08,14,04,9.90
2019,04,08,14,05,9.90
2019,04,08,14,06,9.90
2019,04,08,14,07,10.00
2019,04,08,14,08,10.00
2019,04,08,14,09,10.10
2019,04,08,14,10,10.10
2019,04,08,14,11,10.10
2019,04,08,14,12,10.20
2019,04,08,14,13,10.20
2019,04,08,14,14,10.20
2019,04,08,14,15,10.20
2019,04,08,14,16,10.10
2019,04,08,14,17,10.10
2019,04,08,14,18,10.10
2019,04,08,14,19,10.10
2019,04,08,14,20,10.10
2019,04,08,14,21,10.00
2019,04,08,14,22,10.00
2019,04,08,14,23,9.90
2019,04,08,14,24,9.90
2019,04,08,14,25,10.00
2019,04,08,14,26,10.00
2019,04,08,14,27,10.10
2019,04,08,14,28,10.10
2019,04,08,14,29,10.10
2019,04,08,14,30,10.20
2019,04,08,14,31,10.20
2019,04,08,14,32,10.30
2019,04,08,14,33,10.30
2019,04,08,14,34,10.30
2019,04,08,14,35,10.30
2019,04,08,14,36,10.20
2019,04,08,14,37,10.20
2019,04,08,14,38,10.20
2019,04,08,14,39,10.20
2019,04,08,14,40,10.20
2019,04,08,14,41,10.20
2019,04,08,14,42,10.20
2019,04,08,14,43,10.20
2019,04,08,14,44,10.20
2019,04,08,14,45,10.20
2019,04,08,14,46,10.20
2019,04,08,14,47,10.20
2019,04,08,14,48,10.10
2019,04,08,14,49,10.10
2019,04,08,14,50,10.00
2019,04,08,14,51,10.00
2019,04,08,14,52,9.90
2019,04,08,14,53,9.90
2019,04,08,14,54,9.90
2019,04,08,14,55,9.90
2019,04,08,14,56,9.90
2019,04,08,14,57,9.80
2019,04,08,14,58,9.80
2019,04,08,14,59,9.80
2019,04,08,15,00,9.80
2019,04,08,15,01,9.80
2019,04,08,15,02,9.80
2019,04,08,15,03,9.80
2019,04,08,15,04,9.70
2019,04,08,15,05,9.70
2019,04,08,15,06,9.70
2019,04,08,15,07,9.70
2019,04,08,15,08,9.70
2019,04,08,15,09,9.70
2019,04,08,15,10,9.70
2019,04,08,15,11,9.70
2019,04,08,15,12,9.70
2019,04,08,15,13,9.70
2019,04,08,15,14,9.70
2019,04,08,15,15,9.60
2019,04,08,15,16,9.60
2019,04,08,15,17,9.50
2019,04,08,15,18,9.50
2019,04,08,15,19,9.40
2019,04,08,15,20,9.40
2019,04,08,15,21,9.40
2019,04,08,15,22,9.40
2019,04,08,15,23,9.40
2019,04,08,15,24,9.30
2019,04,08,15,25,9.30
2019,04,08,15,26,9.30
2019,04,08,15,27,9.30
2019,04,08,15,28,9.20
2019,04,08,15,29,9.20
2019,04,08,15,30,9.20
2019,04,08,15,31,9.20
2019,04,08,15,32,9.20
2019,04,08,15,33,9.20
2019,04,08,15,34,9.10
2019,04,08,15,35,9.10
2019,04,08,15,36,9.10
2019,04,08,15,37,9.10
2019,04,08,15,38,9.10
2019,04,08,15,39,9.10
2019,04,08,15,40,9.10
2019,04,08,15,41,9.10
2019,04,08,15,42,9.00
2019,04,08,15,43,9.00
2019,04,08,15,44,9.00
2019,04,08,15,45,9.00
2019,04,08,15,46,9.00
2019,04,08,15,47,9.00
2019,04,08,15,48,9.00
2019,04,08,15,49,9.00
2019,04,08,15,50,9.00
2019,04,08,15,51,9.00
2019,04,08,15,52,9.00
2019,04,08,15,53,9.00
2019,04,08,15,54,9.00
2019,04,08,15,55,9.00
2019,04,08,15,56,9.00
2019,04,08,15,57,9.00
2019,04,08,15,58,9.00
2019,04,08,15,59,9.00
2019,04,08,16,00,9.00
2019,04,08,16,01,9.10
2019,04,08,16,02,9.10
2019,04,08,16,03,9.10
2019,04,08,16,04,9.10
2019,04,08,16,05,9.20
2019,04,08,16,06,9.20
2019,04,08,16,07,9.20
2019,04,08,16,08,9.20
2019,04,08,16,09,9.20
2019,04,08,16,10,9.10
2019,04,08,16,11,9.10
2019,04,08,16,12,9.10
2019,04,08,16,13,9.10
2019,04,08,16,14,9.10
2019,04,08,16,15,9.20
2019,04,08,16,16,9.20
2019,04,08,16,17,9.20
2019,04,08,16,18,9.20
2019,04,08,16,19,9.10
2019,04,08,16,20,9.10
2019,04,08,16,21,9.10
2019,04,08,16,22,9.10
2019,04,08,16,23,9.10
2019,04,08,16,24,9.10
2019,04,08,16,25,9.10
2019,04,08,16,26,9.00
2019,04,08,16,27,9.00
2019,04,08,16,28,9.00
2019,04,08,16,29,9.00
2019,04,08,16,30,9.00
2019,04,08,16,31,9.10
2019,04,08,16,32,9.10
2019,04,08,16,33,9.10
2019,04,08,16,34,9.20
2019,04,08,16,35,9.10
2019,04,08,16,36,9.10
2019,04,08,16,37,9.10
2019,04,08,16,38,9.10
2019,04,08,16,39,9.10
2019,04,08,16,40,9.10
2019,04,08,16,41,9.10
2019,04,08,16,42,9.10
2019,04,08,16,43,9.10
2019,04,08,16,44,9.10
2019,04,08,16,45,9.10
2019,04,08,16,46,9.10
2019,04,08,16,47,9.10
2019,04,08,16,48,9.10
2019,04,08,16,49,9.10
2019,04,08,16,50,9.10
2019,04,08,16,51,9.10
2019,04,08,16,52,9.10
2019,04,08,16,53,9.10
2019,04,08,16,54,9.10
2019,04,08,16,55,9.10
2019,04,08,16,56,9.10
2019,04,08,16,57,9.10
2019,04,08,16,58,9.10
2019,04,08,16,59,9.10
2019,04,08,17,00,9.10
2019,04,08,17,01,9.10
2019,04,08,17,02,9.10
2019,04,08,17,03,9.10
2019,04,08,17,04,9.10
2019,04,08,17,05,9.10
2019,04,08,17,06,9.10
2019,04,08,17,07,9.10
2019,04,08,17,08,9.10
2019,04,08,17,09,9.10
2019,04,08,17,10,9.10
2019,04,08,17,11,9.10
2019,04,08,17,12,9.10
2019,04,08,17,13,9.10
2019,04,08,17,14,9.10
2019,04,08,17,15,9.10
2019,04,08,17,16,9.10
2019,04,08,17,17,9.10
2019,04,08,17,18,9.20
2019,04,08,17,19,9.20
2019,04,08,17,20,9.20
2019,04,08,17,21,9.20
2019,04,08,17,22,9.20
2019,04,08,17,23,9.10
2019,04,08,17,24,9.10
2019,04,08,17,25,9.10
2019,04,08,17,26,9.00
2019,04,08,17,27,9.00
2019,04,08,17,28,9.00
2019,04,08,17,29,9.00
2019,04,08,17,30,8.90
2019,04,08,17,31,8.90
2019,04,08,17,32,8.80
2019,04,08,17,33,8.80
2019,04,08,17,34,8.80
2019,04,08,17,35,8.80
2019,04,08,17,36,8.80
2019,04,08,17,37,8.80
2019,04,08,17,38,8.80
2019,04,08,17,39,8.80
2019,04,08,17,40,8.80
2019,04,08,17,41,8.80
2019,04,08,17,42,8.80
2019,04,08,17,43,8.80
2019,04,08,17,44,8.80
2019,04,08,17,45,8.80
2019,04,08,17,46,8.80
2019,04,08,17,47,8.80
2019,04,08,17,48,8.80
2019,04,08,17,49,8.80
2019,04,08,17,50,8.80
2019,04,08,17,51,8.80
2019,04,08,17,52,8.80
2019,04,08,17,53,8.80
2019,04,08,17,54,8.80
2019,04,08,17,55,8.70
2019,04,08,17,56,8.70
2019,04,08,17,57,8.70
2019,04,08,17,58,8.70
2019,04,08,17,59,8.70
2019,04,08,18,00,8.70